Satellite-Ground Cal/Val Region Overpasses Predictions

Prediction of Satellite NPP Overpassing Cal/Val Region: PacNW

Region Location: (Latitude: 10.00, Longitude: 139.50) to (Latitude: 22.70, Longitude: 165.60).

Table of predicted overpasses for the next 14.0 days since TLE Epoch: 9/18/2021
Interval Starting Time Starting Location Ending Time Ending Location
1 09/19/2021 02:33:45 ( 10.00, 161.33) 09/19/2021 02:37:21 ( 22.69, 158.31)
2 09/19/2021 15:05:39 ( 22.66, 158.57) 09/19/2021 15:09:14 ( 10.04, 155.56)
3 09/20/2021 02:15:21 ( 12.18, 165.59) 09/20/2021 02:18:20 ( 22.69, 163.07)
4 09/20/2021 03:56:14 ( 10.01, 140.71) 09/20/2021 03:57:43 ( 15.24, 139.50)
5 09/20/2021 14:46:37 ( 22.66, 163.32) 09/20/2021 14:50:12 ( 10.04, 160.32)
6 09/21/2021 03:37:12 ( 10.02, 145.47) 09/21/2021 03:40:48 ( 22.70, 142.45)
7 09/21/2021 14:30:33 ( 12.27, 165.59) 09/21/2021 14:31:11 ( 10.03, 165.08)
8 09/21/2021 16:09:06 ( 22.65, 142.70) 09/21/2021 16:12:41 ( 10.03, 139.70)
9 09/22/2021 03:18:11 ( 10.02, 150.23) 09/22/2021 03:21:46 ( 22.64, 147.22)
10 09/22/2021 15:50:04 ( 22.64, 147.46) 09/22/2021 15:53:39 ( 10.03, 144.46)
11 09/23/2021 02:59:09 ( 10.02, 154.98) 09/23/2021 03:02:44 ( 22.65, 151.98)
12 09/23/2021 15:31:02 ( 22.70, 152.23) 09/23/2021 15:34:38 ( 10.02, 149.21)
13 09/24/2021 02:40:08 ( 10.03, 159.74) 09/24/2021 02:43:43 ( 22.65, 156.74)
14 09/24/2021 15:12:00 ( 22.70, 156.99) 09/24/2021 15:15:36 ( 10.02, 153.97)
15 09/25/2021 02:21:06 ( 10.03, 164.50) 09/25/2021 02:24:41 ( 22.66, 161.49)
16 09/25/2021 14:52:59 ( 22.69, 161.75) 09/25/2021 14:56:35 ( 10.01, 158.73)
17 09/26/2021 03:43:35 ( 10.04, 143.88) 09/26/2021 03:47:10 ( 22.67, 140.87)
18 09/26/2021 14:35:01 ( 18.99, 165.59) 09/26/2021 14:37:34 ( 10.01, 163.48)
19 09/26/2021 16:15:28 ( 22.68, 141.13) 09/26/2021 16:17:21 ( 16.05, 139.51)
20 09/27/2021 03:24:33 ( 10.05, 148.64) 09/27/2021 03:28:08 ( 22.67, 145.63)
21 09/27/2021 15:56:26 ( 22.68, 145.88) 09/27/2021 16:00:02 ( 10.00, 142.86)
22 09/28/2021 03:05:32 ( 10.05, 153.39) 09/28/2021 03:09:07 ( 22.68, 150.39)
23 09/28/2021 15:37:25 ( 22.67, 150.64) 09/28/2021 15:41:00 ( 10.06, 147.63)
24 09/29/2021 02:46:29 ( 10.00, 158.16) 09/29/2021 02:50:05 ( 22.68, 155.14)
25 09/29/2021 15:18:23 ( 22.67, 155.40) 09/29/2021 15:21:58 ( 10.05, 152.39)
26 09/30/2021 02:27:28 ( 10.01, 162.92) 09/30/2021 02:31:04 ( 22.69, 159.90)
27 09/30/2021 14:59:22 ( 22.66, 160.15) 09/30/2021 15:02:57 ( 10.04, 157.15)
28 10/01/2021 02:10:57 ( 18.88, 165.59) 10/01/2021 02:12:02 ( 22.70, 164.65)
29 10/01/2021 03:49:56 ( 10.02, 142.30) 10/01/2021 03:53:16 ( 21.76, 139.51)
30 10/01/2021 14:40:20 ( 22.66, 164.91) 10/01/2021 14:43:55 ( 10.04, 161.90)
31 10/01/2021 16:21:50 ( 22.65, 139.53) 10/01/2021 16:21:52 ( 22.54, 139.50)
32 10/02/2021 03:30:55 ( 10.03, 147.06) 10/02/2021 03:34:30 ( 22.65, 144.05)
